Date_and_time,latitude,longitude,wind_speed,RelWindDirFrom,WindDirFrom,air_pressure,air_temperature,relative_humidity,Temp,platform_speed_wrt_ground,air_pressure_at_mean_sea_level,platform_orientation
2018-04-13 23:40,50.6304666666667,-96.9807716666667,11.2,14.1,9,1001.78,-1.4,42,2.92,0.0,1030.22,165.5
2018-04-13 23:50,50.6304233333333,-96.9807683333333,10.7,13.4,11,1001.95,-1.5,45,2.92,0.0,1030.39,165.5
2018-04-14 00:00,50.6304333333333,-96.9807566666667,10.5,13.1,9,1002.11,-1.5,44,2.93,0.0,1030.55,12.6
2018-04-14 00:10,50.630395,-96.98075,9.8,11.9,10,1002.22,-1.5,46,2.94,0.0,1030.66,12.6
2018-04-14 00:20,50.63043,-96.9807583333333,10.4,12.8,9,1002.27,-1.7,47,2.95,0.0,1030.72,12.6
2018-04-14 00:30,50.6304316666667,-96.980755,10.8,13.6,9,1002.43,-1.8,47,2.96,0.0,1030.87,12.6
2018-04-14 00:40,50.6304316666667,-96.9807516666667,11.2,14.1,8,1002.62,-1.9,47,2.97,0.0,1031.08,12.6
2018-04-14 00:50,50.6304316666667,-96.9807516666667,11.0,14.0,6,1002.87,-2.0,46,2.97,0.0,1031.34,12.6
2018-04-14 01:00,50.6304333333333,-96.9807516666667,9.6,12.4,5,1003.22,-2.2,49,2.99,0.0,1031.71,0.0
2018-04-14 01:10,50.630435,-96.9807533333333,10.0,12.4,4,1003.25,-2.6,53,3.00,0.0,1031.76,0.0
2018-04-14 01:20,50.6304416666667,-96.9807633333333,10.3,12.3,3,1003.20,-3.0,55,3.00,0.0,1031.73,0.0
2018-04-14 01:30,50.6304533333333,-96.9807633333333,10.5,12.8,360,1003.24,-3.0,52,3.01,0.0,1031.77,0.0
2018-04-14 01:40,50.6304366666667,-96.980755,9.5,11.6,359,1003.30,-3.0,52,3.02,0.0,1031.84,0.0
2018-04-14 01:50,50.63044,-96.98075,9.0,11.2,357,1003.47,-3.0,50,3.03,0.0,1032.01,0.0
2018-04-14 02:00,50.63044,-96.9807516666667,8.8,10.7,356,1003.65,-3.0,47,3.03,0.0,1032.20,360.0
2018-04-14 02:10,50.6304416666667,-96.980755,8.9,11.1,354,1003.88,-3.0,46,3.04,0.0,1032.44,360.0
2018-04-14 02:20,50.63044,-96.9807616666667,9.3,12.3,359,1003.93,-3.0,46,3.05,0.0,1032.50,360.0
2018-04-14 02:30,50.6304383333333,-96.9807516666667,8.3,10.4,4,1004.16,-3.3,51,3.06,0.0,1032.76,360.0
2018-04-14 02:40,50.6304533333333,-96.9807733333333,9.9,13.2,6,1004.26,-3.7,55,3.07,0.0,1032.89,360.0
2018-04-14 02:50,50.6304333333333,-96.9807633333333,11.8,16.4,6,1004.24,-4.0,57,3.07,0.0,1032.89,360.0
2018-04-14 03:00,50.6304416666667,-96.9807583333333,13.1,15.7,5,1004.08,-4.3,58,3.07,0.0,1032.77,38.0
2018-04-14 03:10,50.6304433333333,-96.9807566666667,12.1,15.6,3,1004.20,-4.5,59,3.08,0.0,1032.92,38.0
2018-04-14 03:20,50.63044,-96.9807583333333,10.8,13.9,4,1004.38,-4.6,61,3.08,0.0,1033.11,38.0
2018-04-14 03:30,50.6304366666667,-96.98075,11.3,13.4,8,1004.33,-4.9,64,3.08,0.0,1033.07,38.0
2018-04-14 03:40,50.6304383333333,-96.9807516666667,12.9,16.3,12,1004.33,-5.1,65,3.08,0.0,1033.09,38.0
2018-04-14 03:50,50.6304366666667,-96.9807516666667,12.8,15.0,12,1004.26,-5.3,65,3.08,0.0,1033.03,38.0
2018-04-14 04:00,50.6304366666667,-96.9807516666667,13.0,15.5,14,1004.23,-5.8,69,3.08,0.0,1033.02,38.0
2018-04-14 04:10,50.630435,-96.98075,14.5,17.5,11,1004.07,-6.1,67,3.07,0.0,1032.88,38.0
2018-04-14 04:20,50.6304466666667,-96.9807583333333,13.5,17.2,6,1004.19,-6.2,65,3.07,0.0,1033.03,38.0
2018-04-14 04:30,50.6304416666667,-96.9807566666667,14.0,17.7,3,1004.20,-6.4,65,3.07,0.0,1033.06,38.0
2018-04-14 04:40,50.6304333333333,-96.9807633333333,14.2,17.3,4,1004.29,-6.5,64,3.06,0.0,1033.18,38.0
2018-04-14 04:50,50.6304366666667,-96.98076,13.5,16.7,8,1004.33,-6.7,66,3.05,0.0,1033.24,38.0
2018-04-14 05:00,50.6304333333333,-96.9807616666667,14.5,18.0,8,1004.22,-6.7,64,3.05,0.0,1033.14,194.5
2018-04-14 05:10,50.630435,-96.9807616666667,13.2,16.7,10,1004.31,-6.8,65,3.05,0.0,1033.25,194.5
2018-04-14 05:20,50.6304166666667,-96.980775,12.4,16.0,7,1004.49,-6.9,64,3.04,0.0,1033.45,194.5
2018-04-14 05:30,50.6304466666667,-96.98075,11.8,15.5,5,1004.65,-7.1,64,3.03,0.0,1033.64,194.5
2018-04-14 05:40,50.63044,-96.9807616666667,11.1,13.3,8,1004.70,-7.2,65,3.03,0.0,1033.71,194.5
2018-04-14 05:50,50.6304366666667,-96.98076,10.3,12.7,13,1004.87,-7.3,66,3.03,0.0,1033.92,194.5
2018-04-14 06:00,50.630435,-96.98076,10.2,12.3,9,1004.88,-7.5,67,3.03,0.0,1033.96,142.0
2018-04-14 06:10,50.6304333333333,-96.98076,9.9,11.6,8,1004.79,-7.7,68,3.02,0.0,1033.88,142.0
2018-04-14 06:20,50.6304333333333,-96.98076,9.9,13.4,8,1004.78,-7.9,69,3.02,0.0,1033.89,142.0
2018-04-14 06:30,50.6304333333333,-96.98076,11.0,13.7,13,1004.79,-7.9,68,3.01,0.0,1033.92,142.0
2018-04-14 06:40,50.63045,-96.9807583333333,12.6,14.5,15,1004.74,-8.1,68,3.01,0.0,1033.88,142.0
2018-04-14 06:50,50.6304333333333,-96.9807616666667,12.6,14.8,16,1004.67,-8.3,69,3.01,0.0,1033.81,142.0
2018-04-14 07:00,50.6304383333333,-96.9807583333333,12.3,14.7,14,1004.59,-8.4,71,3.01,0.0,1033.75,347.4
2018-04-14 07:10,50.6304383333333,-96.9807566666667,12.5,14.5,14,1004.53,-8.6,71,3.00,0.0,1033.71,347.4
2018-04-14 07:20,50.63044,-96.980755,11.9,14.3,13,1004.54,-8.7,73,2.98,0.0,1033.72,347.4
2018-04-14 07:30,50.6304383333333,-96.980755,11.2,13.4,11,1004.63,-8.8,73,2.97,0.0,1033.83,347.4
2018-04-14 07:40,50.6304383333333,-96.980755,9.7,12.8,11,1004.89,-8.9,74,2.97,0.0,1034.11,347.4
2018-04-14 07:50,50.6304366666667,-96.980755,8.7,11.5,8,1005.05,-9.0,75,2.97,0.0,1034.29,347.4
2018-04-14 08:00,50.6304366666667,-96.980755,8.5,10.1,10,1005.17,-9.0,75,2.97,0.0,1034.43,38.0
2018-04-14 08:10,50.6304333333333,-96.980745,8.1,10.4,10,1005.26,-9.1,76,2.97,0.0,1034.54,38.0
2018-04-14 08:20,50.6304383333333,-96.9807516666667,7.8,9.0,8,1005.36,-9.2,76,2.97,0.0,1034.65,38.0
2018-04-14 08:30,50.63044,-96.9807616666667,6.6,8.2,4,1005.43,-9.2,77,2.97,0.0,1034.73,38.0
2018-04-14 08:40,50.630435,-96.980765,6.4,9.5,5,1005.48,-9.2,75,2.97,0.0,1034.78,38.0
2018-04-14 08:50,50.6304366666667,-96.9807616666667,6.9,8.0,9,1005.48,-9.1,75,2.96,0.0,1034.80,38.0
2018-04-14 09:00,50.6304333333333,-96.9807566666667,6.9,8.3,11,1005.56,-9.2,76,2.95,0.0,1034.89,142.0
2018-04-14 09:10,50.6304333333333,-96.9807566666667,6.9,7.9,15,1005.64,-9.3,77,2.94,0.0,1034.99,142.0
2018-04-14 09:20,50.6304333333333,-96.9807583333333,6.3,7.3,12,1005.72,-9.3,77,2.94,0.0,1035.07,142.0
2018-04-14 09:30,50.6304333333333,-96.9807583333333,6.7,7.6,12,1005.79,-9.3,76,2.94,0.0,1035.15,142.0
2018-04-14 09:40,50.6304416666667,-96.9807583333333,7.1,8.3,17,1005.74,-9.3,76,2.94,0.0,1035.10,142.0
2018-04-14 09:50,50.63044,-96.9807566666667,7.3,8.2,20,1005.61,-9.5,78,2.94,0.0,1034.98,142.0
2018-04-14 10:00,50.6304366666667,-96.9807566666667,7.0,8.1,16,1005.55,-9.6,80,2.93,0.0,1034.93,360.0
2018-04-14 10:10,50.630435,-96.9807583333333,7.0,8.5,17,1005.63,-9.5,79,2.92,0.0,1035.02,360.0
2018-04-14 10:20,50.630435,-96.9807583333333,7.1,8.6,20,1005.59,-9.6,78,2.91,0.0,1034.97,360.0
2018-04-14 10:30,50.630435,-96.9807566666667,6.8,7.7,16,1005.68,-9.6,78,2.90,0.0,1035.07,360.0
2018-04-14 10:40,50.630435,-96.980755,6.0,7.4,13,1005.83,-9.4,76,2.90,0.0,1035.21,360.0
2018-04-14 10:50,50.6304366666667,-96.9807566666667,7.0,8.4,22,1005.73,-9.5,76,2.90,0.0,1035.12,360.0
2018-04-14 11:00,50.6304366666667,-96.980755,6.8,8.0,31,1005.81,-9.7,79,2.91,0.0,1035.21,0.0
2018-04-14 11:10,50.6304366666667,-96.9807533333333,6.6,7.6,30,1005.94,-9.8,80,2.89,0.0,1035.35,0.0
2018-04-14 11:20,50.6304383333333,-96.9807533333333,6.4,7.2,32,1005.99,-9.8,80,2.89,0.0,1035.41,0.0
2018-04-14 11:30,50.6304366666667,-96.9807533333333,6.1,7.1,28,1006.00,-9.8,80,2.89,0.0,1035.42,0.0
2018-04-14 11:40,50.6304383333333,-96.9807533333333,6.0,7.0,29,1006.06,-9.7,80,2.88,0.0,1035.48,0.0
2018-04-14 11:50,50.6304383333333,-96.9807533333333,5.5,6.4,30,1006.23,-9.6,80,2.88,0.0,1035.66,0.0
2018-04-14 12:00,50.6304566666667,-96.98076,4.9,5.4,23,1006.47,-9.4,78,2.87,0.0,1035.89,25.7
2018-04-14 12:10,50.630455,-96.9807466666667,5.0,6.3,27,1006.51,-9.2,77,2.87,0.0,1035.93,25.7
2018-04-14 12:20,50.63042,-96.980745,4.8,5.5,18,1006.62,-9.1,76,2.86,0.0,1036.04,25.7
2018-04-14 12:30,50.630455,-96.9807433333333,4.7,6.1,17,1006.68,-9.0,75,2.86,0.0,1036.08,25.7
2018-04-14 12:40,50.63044,-96.9807516666667,5.8,6.5,29,1006.64,-8.8,74,2.86,0.0,1036.03,25.7
2018-04-14 12:50,50.63044,-96.980755,5.8,6.5,32,1006.76,-8.8,76,2.85,0.0,1036.16,25.7
2018-04-14 13:00,50.63044,-96.9807516666667,5.4,6.3,25,1006.80,-8.8,76,2.85,0.0,1036.21,12.6
2018-04-14 13:10,50.63044,-96.9807533333333,4.9,5.3,19,1006.87,-8.7,76,2.84,0.0,1036.28,12.6
2018-04-14 13:20,50.6304383333333,-96.9807666666667,4.9,5.6,19,1006.96,-8.6,76,2.83,0.0,1036.36,12.6
2018-04-14 13:30,50.63043,-96.9807533333333,4.8,5.7,25,1006.99,-8.4,76,2.82,0.0,1036.38,12.6
2018-04-14 13:40,50.63043,-96.9807566666667,4.3,5.0,28,1007.01,-8.3,76,2.81,0.0,1036.39,12.6
2018-04-14 13:50,50.6304316666667,-96.980755,3.6,4.2,16,1007.16,-8.2,75,2.81,0.0,1036.52,12.6
2018-04-14 14:00,50.6304316666667,-96.9807533333333,3.1,3.9,19,1007.20,-7.9,73,2.81,0.0,1036.54,131.7
2018-04-14 14:10,50.6304316666667,-96.9807516666667,2.3,3.2,14,1007.20,-7.5,72,2.81,0.0,1036.51,131.7
2018-04-14 14:20,50.6304316666667,-96.9807516666667,2.5,3.4,359,1007.35,-7.1,70,2.81,0.0,1036.63,131.7
2018-04-14 14:30,50.6304333333333,-96.9807533333333,2.2,2.9,7,1007.47,-6.8,68,2.80,0.0,1036.73,131.7
2018-04-14 14:40,50.6304333333333,-96.980755,2.6,3.8,44,1007.53,-6.6,66,2.78,0.0,1036.78,131.7
2018-04-14 14:50,50.630435,-96.9807766666667,2.5,3.8,48,1007.54,-6.1,65,2.78,0.0,1036.77,131.7
2018-04-14 15:00,50.630445,-96.9807666666667,3.6,5.2,48,1007.59,-6.1,64,2.77,0.0,1036.81,194.5
2018-04-14 15:10,50.6304433333333,-96.9807633333333,3.7,5.0,44,1007.63,-5.9,67,2.77,0.0,1036.84,194.5
2018-04-14 15:20,50.6304283333333,-96.980765,4.0,5.5,68,1007.74,-5.4,59,2.76,0.0,1036.92,194.5
2018-04-14 15:30,50.63043,-96.9807583333333,4.3,5.8,73,1007.79,-5.0,56,2.77,0.0,1036.93,194.5
2018-04-14 15:40,50.6304333333333,-96.9807616666667,4.4,6.2,92,1007.83,-4.2,52,2.77,0.0,1036.92,194.5
2018-04-14 15:50,50.630435,-96.9807633333333,4.1,6.3,104,1007.95,-3.4,49,2.77,0.0,1036.99,194.5
2018-04-14 16:00,50.630435,-96.9807633333333,4.3,6.4,117,1008.07,-3.4,50,2.77,0.0,1037.09,234.7
2018-04-14 16:10,50.6304366666667,-96.9807633333333,3.7,5.4,115,1008.11,-3.5,52,2.77,0.0,1037.11,234.7
2018-04-14 16:20,50.6304383333333,-96.9807433333333,4.6,5.9,110,1008.00,-3.1,48,2.77,0.0,1036.97,234.7
2018-04-14 16:30,50.63044,-96.98075,4.4,5.8,103,1007.85,-2.8,47,2.77,0.0,1036.78,234.7
2018-04-14 16:40,50.63044,-96.9807533333333,4.7,6.5,97,1007.73,-2.3,47,2.78,0.0,1036.61,234.7
2018-04-14 16:50,50.6304383333333,-96.980755,5.6,7.2,71,1007.60,-3.0,52,2.78,0.0,1036.50,234.7
2018-04-14 17:00,50.6304216666667,-96.9807566666667,5.8,7.3,66,1007.36,-3.7,54,2.78,0.0,1036.29,194.5
2018-04-14 17:10,50.6304266666667,-96.980755,4.7,6.5,63,1007.22,-3.6,51,2.78,0.0,1036.11,194.5
2018-04-14 17:20,50.6304316666667,-96.9807483333333,4.8,7.8,49,1007.20,-3.4,51,2.79,0.0,1036.05,194.5
2018-04-14 17:30,50.6304333333333,-96.9807516666667,7.4,9.1,29,1007.02,-3.7,58,2.80,0.0,1035.84,194.5
2018-04-14 17:40,50.6304316666667,-96.9807516666667,8.5,9.7,21,1006.78,-4.0,61,2.80,0.0,1035.57,194.5
2018-04-14 17:50,50.6304333333333,-96.9807516666667,8.7,10.1,20,1006.64,-4.1,58,2.81,0.0,1035.43,194.5
2018-04-14 18:00,50.6304316666667,-96.98075,7.9,9.3,19,1006.47,-3.9,58,2.81,0.0,1035.25,131.7
2018-04-14 18:10,50.6304316666667,-96.9807516666667,7.1,8.9,17,1006.39,-3.7,54,2.82,0.0,1035.14,131.7
2018-04-14 18:20,50.6304316666667,-96.9807516666667,6.6,8.3,17,1006.25,-3.5,54,2.82,0.0,1034.97,131.7
2018-04-14 18:30,50.63045,-96.98077,6.2,8.1,20,1006.01,-3.3,54,2.83,0.0,1034.68,131.7
2018-04-14 18:40,50.6304416666667,-96.9807666666667,7.3,9.1,23,1005.83,-3.0,56,2.84,0.0,1034.51,131.7
2018-04-14 18:50,50.63044,-96.9807666666667,8.5,10.0,19,1005.75,-2.9,58,2.85,0.0,1034.47,131.7
2018-04-14 19:00,50.63044,-96.980765,8.2,10.2,21,1005.69,-2.9,57,2.86,0.0,1034.39,360.0
2018-04-14 19:10,50.63044,-96.980765,7.9,9.7,18,1005.61,-2.7,58,2.86,0.0,1034.30,360.0
2018-04-14 19:20,50.63044,-96.9807616666667,8.4,10.4,16,1005.56,-2.5,60,2.87,0.0,1034.25,360.0
2018-04-14 19:30,50.63044,-96.9807616666667,8.8,10.4,14,1005.43,-2.3,58,2.88,0.0,1034.13,360.0
2018-04-14 19:40,50.63044,-96.9807616666667,9.8,11.4,16,1005.48,-2.3,59,2.88,0.0,1034.17,360.0
2018-04-14 19:50,50.63044,-96.98076,9.6,12.0,17,1005.30,-2.1,60,2.89,0.0,1033.98,360.0
2018-04-14 20:00,50.63044,-96.9807583333333,9.1,11.0,21,1005.25,-1.9,59,2.89,0.0,1033.90,360.0
2018-04-14 20:10,50.6304383333333,-96.9807583333333,8.5,10.1,16,1005.30,-1.7,59,2.90,0.0,1033.93,360.0
2018-04-14 20:20,50.63044,-96.9807566666667,8.6,10.0,17,1005.19,-1.4,61,2.91,0.0,1033.79,360.0
2018-04-14 20:30,50.6304383333333,-96.980755,8.7,10.1,19,1005.14,-1.3,58,2.92,0.0,1033.72,360.0
2018-04-14 20:40,50.630435,-96.9807666666667,8.6,9.9,18,1005.02,-1.3,57,2.92,0.0,1033.59,360.0
2018-04-14 20:50,50.6304366666667,-96.9807633333333,8.1,9.5,19,1005.03,-1.2,57,2.93,0.0,1033.59,360.0
2018-04-14 21:00,50.63044,-96.980765,8.0,9.1,20,1005.01,-1.0,55,2.94,0.0,1033.56,323.4
2018-04-14 21:10,50.6304433333333,-96.9807633333333,8.4,9.7,22,1004.91,-1.0,56,2.95,0.0,1033.44,323.4
2018-04-14 21:20,50.63045,-96.9807583333333,8.0,9.1,21,1004.84,-1.0,56,2.95,0.0,1033.35,323.4
2018-04-14 21:30,50.6304416666667,-96.980745,7.9,8.9,22,1004.74,-0.8,55,2.96,0.0,1033.24,323.4
2018-04-14 21:40,50.6304416666667,-96.9807483333333,8.2,9.3,20,1004.60,-0.8,53,2.96,0.0,1033.08,323.4
2018-04-14 21:50,50.63044,-96.9807466666667,8.4,9.7,24,1004.47,-0.7,55,2.97,0.0,1032.93,323.4
2018-04-14 22:00,50.63044,-96.9807483333333,8.6,9.7,22,1004.40,-0.6,55,2.98,0.0,1032.85,90.0
2018-04-14 22:10,50.6304383333333,-96.98075,8.4,9.6,19,1004.32,-0.5,52,2.99,0.0,1032.75,90.0
2018-04-14 22:20,50.6304383333333,-96.9807533333333,8.3,9.4,18,1004.36,-0.5,55,3.00,0.0,1032.79,90.0
2018-04-14 22:30,50.6304383333333,-96.9807516666667,6.5,8.0,12,1004.41,-0.1,50,3.00,0.0,1032.81,90.0
2018-04-14 22:40,50.6304383333333,-96.9807516666667,7.3,8.6,21,1004.31,0.0,51,3.01,0.0,1032.70,90.0
2018-04-14 22:50,50.6304383333333,-96.9807516666667,8.2,9.4,22,1004.18,-0.2,55,3.02,0.0,1032.57,90.0
2018-04-14 23:00,50.6304383333333,-96.9807533333333,6.6,7.9,20,1004.12,-0.2,59,3.03,0.0,1032.51,90.0
2018-04-14 23:10,50.6304383333333,-96.9807533333333,6.9,7.9,19,1004.12,-0.1,59,3.03,0.0,1032.50,90.0
2018-04-14 23:20,50.6304383333333,-96.9807533333333,7.5,8.5,20,1004.07,0.0,55,3.03,0.0,1032.43,90.0
2018-04-14 23:30,50.6304383333333,-96.980755,7.3,8.5,18,1004.03,0.1,53,3.04,0.0,1032.38,90.0
2018-04-14 23:40,50.6304033333333,-96.9807633333333,6.6,7.5,23,1004.15,0.1,56,3.05,0.0,1032.50,90.0
2018-04-14 23:50,50.630425,-96.980765,6.6,7.4,17,1004.25,0.1,55,3.06,0.0,1032.61,90.0
